This is the latest recevied weather packets stored in our database for station/object W1REE. If no packets are shown the sender has not sent any weather packets the latest 1 day(s).
| Time | Temp. | Humidity | Pressure | Rain* | Wind** | Luminosity | Snow |
|---|---|---|---|---|---|---|---|
| 1777994137 | 4.44° C | 86% | 1015.6 hPa | 0 mm | 0 m/s | 32 W/m² | - |
| 1777993834 | 5° C | 85% | 1015.4 hPa | 0 mm | 0 m/s | 26 W/m² | - |
| 1777993531 | 5° C | 84% | 1015.4 hPa | 0 mm | 0 m/s | 28 W/m² | - |
| 1777993227 | 5° C | 85% | 1015.6 hPa | 0 mm | 0 m/s | 39 W/m² | - |
| 1777992923 | 5° C | 83% | 1015.6 hPa | 0 mm | 0 m/s | 26 W/m² | - |
| 1777992622 | 5° C | 82% | 1015.7 hPa | 0 mm | 0.45 m/s, 18° | 24 W/m² | - |
| 1777992319 | 5.56° C | 81% | 1015.4 hPa | 0 mm | 0.45 m/s, 51° | 25 W/m² | - |
| 1777992016 | 5.56° C | 80% | 1015.4 hPa | 0 mm | 0.45 m/s, 17° | 27 W/m² | - |
| 1777991714 | 5.56° C | 81% | 1015.6 hPa | 0 mm | 0 m/s | 28 W/m² | - |
| 1777991411 | 5.56° C | 80% | 1015.3 hPa | 0 mm | 0.89 m/s, 88° | 35 W/m² | - |
| 1777991108 | 5.56° C | 79% | 1015.3 hPa | 0 mm | 1.34 m/s, 55° | 37 W/m² | - |
| 1777990805 | 5.56° C | 80% | 1015.6 hPa | 0 mm | 0.45 m/s, 42° | 34 W/m² | - |
| 1777990502 | 5.56° C | 80% | 1015.3 hPa | 0 mm | 0.45 m/s, 33° | 36 W/m² | - |
| 1777990199 | 5.56° C | 80% | 1015.2 hPa | 0 mm | 0 m/s | 49 W/m² | - |
| 1777989896 | 5.56° C | 81% | 1015.3 hPa | 0 mm | 0 m/s | 40 W/m² | - |
| 1777989592 | 5.56° C | 80% | 1015.4 hPa | 0 mm | 0.45 m/s, 32° | 27 W/m² | - |
| 1777989289 | 5.56° C | 80% | 1015.4 hPa | 0 mm | 0.89 m/s, 49° | 43 W/m² | - |
| 1777988985 | 5.56° C | 81% | 1015.3 hPa | 0 mm | 0.45 m/s, 30° | 52 W/m² | - |
| 1777988682 | 5.56° C | 81% | 1015.3 hPa | 0 mm | 0 m/s | 54 W/m² | - |
| 1777988378 | 5.56° C | 80% | 1015.6 hPa | 0 mm | 1.34 m/s, 30° | 23 W/m² | - |
| 1777988076 | 5.56° C | 80% | 1015.3 hPa | 0 mm | 0.45 m/s, 37° | 20 W/m² | - |
| 1777987771 | 5.56° C | 81% | 1015.3 hPa | 0 mm | 0 m/s | 20 W/m² | - |
| 1777987468 | 5.56° C | 80% | 1015.3 hPa | 0 mm | 0 m/s | 23 W/m² | - |
| 1777987166 | 5.56° C | 81% | 1015.1 hPa | 0 mm | 0 m/s | 21 W/m² | - |
| 1777986863 | 5.56° C | 80% | 1015 hPa | 0 mm | 0 m/s | 18 W/m² | - |
* Rain latest hour (hover to see other rain measurements)
** Current wind speed in m/s (hover to see current wind gust speed)